sat.trackr.live / text

‹ back to catalog

HAIYANG-4 01

NORAD 61936 · 2024-208A

PAYLOAD ACTIVE UNKNOWN

§ Identity

Operator
Country
PRC
Launch date
2024-11-13
Launch site
TAISC
Launch vehicle
Mass (kg)
RCS (m²)

External: N2YO · Heavens-Above · Gunter

§ Orbital elements

Epoch: 2026-09-22T23:47:30.861024Z

Period
97.74 min
Inclination
98.0074°
Eccentricity
0.0001210
Mean motion
14.73292320 rev/d
Perigee alt
649.7 km
Apogee alt
651.4 km
Semi-major
7,028.7 km
B*
5.0079e-5
RAAN
272.4247°
Arg perigee
117.1535°
Mean anomaly
242.9797°
Rev number
9,984

§ Raw data

HAIYANG-4 011 61936U 24208A   26265.99132941  .00000274  00000+0  50079-4 0  99972 61936  98.0074 272.4247 0001210 117.1535 242.9797 14.73292320 99843

JSON: /api/v1/satellites/61936 · /tle

For live sub-satellite position, see the globe view (requires WebGL).

§ Visibility from observer

Set your observer location to see the next 7 days of passes ≥ 10°. The values pass through the URL so the page stays shareable.

No JS? Fill the form by hand. The geolocation button needs JavaScript.

§ Radio — SatNOGS DB

ModeDescriptionDownlinkUplink
FM S-band telemetry 2.220 GHz

1 transmitter · refreshed weekly from db.satnogs.org